AZU4731 SAEZ-SBPA

Flight info

Callsign AZU4731
Flight time 1h 19m
Altitude 39000
Route DORVO1E DORVO UN857 TOGEK
Aircraft A346/H-SDE2E3FGHIJ3J4J5M1RWXY/LB1D1

Departure

Time 2026-05-09 10:53
Airport Ezeiza International Airport - Ministro Pistarini (SAEZ)

Arrival

Time 2026-05-09 12:12
Airport Porto Alegre-Salgado Filho International Airport (SBPA)
Time Latitude Longitude Altitude Speed Heading
2026-05-09 10:46 -34.81563 -58.53670 83 ft 0 kts 228°
2026-05-09 10:49 -34.81582 -58.53697 88 ft 8 kts 229°
2026-05-09 10:49 -34.81647 -58.53752 86 ft 16 kts 192°
2026-05-09 10:49 -34.81778 -58.53699 88 ft 24 kts 155°
2026-05-09 10:50 -34.81920 -58.53541 84 ft 32 kts 109°
2026-05-09 10:50 -34.81977 -58.53252 86 ft 38 kts 104°
2026-05-09 10:50 -34.82049 -58.52921 90 ft 42 kts 104°
2026-05-09 10:50 -34.82120 -58.52547 86 ft 48 kts 103°
2026-05-09 10:51 -34.82206 -58.52132 85 ft 51 kts 104°
2026-05-09 10:51 -34.82252 -58.51876 85 ft 25 kts 102°
2026-05-09 10:51 -34.82362 -58.51799 89 ft 21 kts 188°
2026-05-09 10:51 -34.82489 -58.51841 92 ft 18 kts 216°
2026-05-09 10:52 -34.82516 -58.51940 93 ft 0 kts 289°
2026-05-09 10:52 -34.82497 -58.52027 90 ft 46 kts 281°
2026-05-09 10:53 -34.82364 -58.52794 93 ft 135 kts 282°
2026-05-09 10:53 -34.82129 -58.54100 566 ft 166 kts 280°
2026-05-09 10:53 -34.81886 -58.55473 1662 ft 163 kts 275°
2026-05-09 10:53 -34.81629 -58.56796 2700 ft 161 kts 270°
2026-05-09 10:54 -34.81400 -58.58175 3202 ft 176 kts 269°
2026-05-09 10:54 -34.81168 -58.59707 3683 ft 190 kts 265°
2026-05-09 10:54 -34.81410 -58.61267 4166 ft 191 kts 236°
2026-05-09 10:54 -34.82254 -58.62567 4706 ft 205 kts 224°
2026-05-09 10:55 -34.83256 -58.63928 5255 ft 225 kts 225°
2026-05-09 10:55 -34.84336 -58.65395 5909 ft 240 kts 225°
2026-05-09 10:55 -34.85614 -58.66716 6816 ft 242 kts 211°
2026-05-09 10:55 -34.87140 -58.67592 7799 ft 244 kts 198°
2026-05-09 10:56 -34.88817 -58.68011 8754 ft 249 kts 186°
2026-05-09 10:56 -34.90563 -58.67930 9748 ft 255 kts 173°
2026-05-09 10:56 -34.92266 -58.67332 10575 ft 265 kts 161°
2026-05-09 10:56 -34.93968 -58.66262 11147 ft 286 kts 152°
2026-05-09 10:57 -34.95605 -58.64731 11662 ft 309 kts 142°
2026-05-09 10:57 -34.97067 -58.62714 12386 ft 325 kts 130°
2026-05-09 10:57 -34.98210 -58.60283 13342 ft 335 kts 118°
2026-05-09 10:57 -34.98939 -58.57537 14243 ft 345 kts 106°
2026-05-09 10:58 -34.99174 -58.54591 15169 ft 352 kts 95°
2026-05-09 10:58 -34.99124 -58.51631 16097 ft 355 kts 92°
2026-05-09 10:58 -34.99037 -58.48567 16743 ft 368 kts 92°
2026-05-09 10:58 -34.98952 -58.45370 17139 ft 386 kts 92°
2026-05-09 10:59 -34.98869 -58.42024 17499 ft 403 kts 92°
2026-05-09 10:59 -34.98785 -58.38557 18146 ft 411 kts 92°
2026-05-09 10:59 -34.98700 -58.35055 18901 ft 414 kts 92°
2026-05-09 10:59 -34.98616 -58.31531 19655 ft 417 kts 92°
2026-05-09 11:00 -34.98533 -58.27981 20376 ft 421 kts 92°
2026-05-09 11:00 -34.98448 -58.24399 21093 ft 425 kts 92°
2026-05-09 11:00 -34.98364 -58.20832 21799 ft 428 kts 92°
2026-05-09 11:00 -34.98278 -58.17178 22507 ft 433 kts 92°
2026-05-09 11:01 -34.98190 -58.13484 23140 ft 439 kts 91°
2026-05-09 11:01 -34.98098 -58.09723 23632 ft 446 kts 91°
2026-05-09 11:01 -34.98003 -58.05924 24162 ft 450 kts 91°
2026-05-09 11:01 -34.97905 -58.02086 24763 ft 453 kts 91°
2026-05-09 11:02 -34.97805 -57.98235 25361 ft 456 kts 91°
2026-05-09 11:02 -34.97650 -57.94401 25915 ft 461 kts 86°
2026-05-09 11:02 -34.96922 -57.90562 26457 ft 470 kts 73°
2026-05-09 11:02 -34.95503 -57.86935 27067 ft 477 kts 61°
2026-05-09 11:03 -34.93504 -57.83663 27640 ft 483 kts 53°
2026-05-09 11:03 -34.91350 -57.80513 28276 ft 485 kts 53°
2026-05-09 11:03 -34.89173 -57.77379 29105 ft 482 kts 53°
2026-05-09 11:03 -34.87018 -57.74269 29991 ft 478 kts 53°
2026-05-09 11:04 -34.84890 -57.71177 30727 ft 474 kts 53°
2026-05-09 11:04 -34.82781 -57.68094 31390 ft 473 kts 53°
2026-05-09 11:04 -34.80710 -57.65056 32008 ft 472 kts 53°
2026-05-09 11:04 -34.78609 -57.61983 32619 ft 472 kts 53°
2026-05-09 11:05 -34.76516 -57.58897 33224 ft 471 kts 52°
2026-05-09 11:05 -34.74423 -57.55824 33831 ft 471 kts 53°
2026-05-09 11:05 -34.72331 -57.52761 34319 ft 471 kts 52°
2026-05-09 11:05 -34.70232 -57.49694 34780 ft 472 kts 51°
2026-05-09 11:06 -34.68121 -57.46628 35153 ft 474 kts 51°
2026-05-09 11:06 -34.66003 -57.43552 35537 ft 475 kts 50°
2026-05-09 11:06 -34.63903 -57.40508 35916 ft 477 kts 50°
2026-05-09 11:06 -34.61771 -57.37407 36248 ft 479 kts 49°
2026-05-09 11:07 -34.59633 -57.34299 36613 ft 479 kts 48°
2026-05-09 11:07 -34.57486 -57.31199 36995 ft 480 kts 48°
2026-05-09 11:07 -34.55336 -57.28101 37356 ft 480 kts 48°
2026-05-09 11:07 -34.53177 -57.24990 37645 ft 482 kts 48°
2026-05-09 11:08 -34.51014 -57.21871 37911 ft 485 kts 48°
2026-05-09 11:08 -34.48835 -57.18730 38183 ft 487 kts 47°
2026-05-09 11:08 -34.46648 -57.15578 38414 ft 489 kts 47°
2026-05-09 11:08 -34.44480 -57.12456 38650 ft 491 kts 47°
2026-05-09 11:09 -34.42275 -57.09281 38841 ft 493 kts 47°
2026-05-09 11:09 -34.37848 -57.02916 38919 ft 494 kts 47°
2026-05-09 11:10 -34.33417 -56.96563 38926 ft 494 kts 47°
2026-05-09 11:10 -34.28977 -56.90203 38927 ft 494 kts 47°
2026-05-09 11:11 -34.24555 -56.83885 38912 ft 494 kts 46°
2026-05-09 11:11 -34.20101 -56.77532 38934 ft 495 kts 46°
2026-05-09 11:12 -34.15631 -56.71187 38931 ft 495 kts 46°
2026-05-09 11:12 -34.11160 -56.64846 38931 ft 495 kts 46°
2026-05-09 11:13 -34.06721 -56.58555 38934 ft 495 kts 46°
2026-05-09 11:13 -34.02255 -56.52226 38932 ft 495 kts 45°
2026-05-09 11:14 -33.97781 -56.45912 38942 ft 495 kts 45°
2026-05-09 11:14 -33.93309 -56.39609 38943 ft 495 kts 45°
2026-05-09 11:15 -33.88866 -56.33357 38944 ft 495 kts 45°
2026-05-09 11:15 -33.84374 -56.27069 38942 ft 494 kts 44°
2026-05-09 11:16 -33.79876 -56.20810 38948 ft 494 kts 44°
2026-05-09 11:16 -33.75387 -56.14546 38952 ft 494 kts 44°
2026-05-09 11:17 -33.70936 -56.08324 38955 ft 494 kts 44°
2026-05-09 11:17 -33.66447 -56.02055 38956 ft 494 kts 44°
2026-05-09 11:18 -33.61951 -55.95789 38957 ft 494 kts 44°
2026-05-09 11:18 -33.57462 -55.89545 38958 ft 494 kts 44°
2026-05-09 11:19 -33.52997 -55.83343 38961 ft 494 kts 44°
2026-05-09 11:19 -33.48500 -55.77107 38938 ft 494 kts 44°
2026-05-09 11:20 -33.44016 -55.70886 38954 ft 492 kts 43°
2026-05-09 11:20 -33.39527 -55.64693 38960 ft 492 kts 43°
2026-05-09 11:21 -33.35064 -55.58544 38965 ft 492 kts 43°
2026-05-09 11:21 -33.30580 -55.52372 38959 ft 492 kts 43°
2026-05-09 11:22 -33.26096 -55.46204 38977 ft 491 kts 43°
2026-05-09 11:22 -33.21604 -55.40043 38976 ft 490 kts 43°
2026-05-09 11:23 -33.17153 -55.33947 38978 ft 490 kts 43°
2026-05-09 11:23 -33.12658 -55.27801 38985 ft 491 kts 43°
2026-05-09 11:24 -33.08165 -55.21658 38957 ft 492 kts 42°
2026-05-09 11:24 -33.03640 -55.15494 38972 ft 494 kts 42°
2026-05-09 11:25 -32.99102 -55.09325 38984 ft 494 kts 42°
2026-05-09 11:25 -32.94599 -55.03209 38986 ft 494 kts 42°
2026-05-09 11:26 -32.90071 -54.97058 38980 ft 495 kts 41°
2026-05-09 11:26 -32.85523 -54.90905 38995 ft 495 kts 41°
2026-05-09 11:27 -32.80973 -54.84761 38996 ft 495 kts 41°
2026-05-09 11:27 -32.76449 -54.78658 38996 ft 495 kts 41°
2026-05-09 11:28 -32.71899 -54.72524 38984 ft 495 kts 40°
2026-05-09 11:28 -32.67345 -54.66390 38988 ft 495 kts 40°
2026-05-09 11:29 -32.62775 -54.60263 39002 ft 495 kts 40°
2026-05-09 11:29 -32.58202 -54.54140 39004 ft 495 kts 40°
2026-05-09 11:30 -32.53669 -54.48074 38996 ft 495 kts 39°
2026-05-09 11:30 -32.49092 -54.41953 39008 ft 494 kts 39°
2026-05-09 11:31 -32.44526 -54.35868 39012 ft 494 kts 39°
2026-05-09 11:31 -32.39957 -54.29784 39012 ft 494 kts 39°
2026-05-09 11:32 -32.35419 -54.23749 39002 ft 494 kts 39°
2026-05-09 11:32 -32.30895 -54.17670 38943 ft 493 kts 39°
2026-05-09 11:33 -32.26404 -54.11566 38963 ft 492 kts 39°
2026-05-09 11:33 -32.19682 -54.02467 38994 ft 492 kts 39°
2026-05-09 11:34 -32.15178 -53.96378 38990 ft 492 kts 38°
2026-05-09 11:34 -32.10659 -53.90286 39017 ft 493 kts 38°
2026-05-09 11:35 -32.06134 -53.84199 39029 ft 493 kts 38°
2026-05-09 11:35 -32.01608 -53.78132 39033 ft 493 kts 38°
2026-05-09 11:36 -31.97093 -53.72084 39004 ft 493 kts 38°
2026-05-09 11:36 -31.92552 -53.66010 39025 ft 494 kts 38°
2026-05-09 11:37 -31.87989 -53.59920 39021 ft 495 kts 37°
2026-05-09 11:37 -31.83421 -53.53836 39030 ft 496 kts 37°
2026-05-09 11:38 -31.78845 -53.47745 39033 ft 496 kts 37°
2026-05-09 11:38 -31.74304 -53.41712 39038 ft 496 kts 37°
2026-05-09 11:39 -31.69732 -53.35647 39036 ft 496 kts 37°
2026-05-09 11:40 -31.62865 -53.26554 39036 ft 496 kts 37°
2026-05-09 11:40 -31.58316 -53.20527 39036 ft 495 kts 36°
2026-05-09 11:41 -31.53715 -53.14464 39042 ft 495 kts 36°
2026-05-09 11:41 -31.49137 -53.08431 39023 ft 495 kts 36°
2026-05-09 11:42 -31.44549 -53.02400 39043 ft 495 kts 36°
2026-05-09 11:42 -31.39971 -52.96381 39051 ft 493 kts 35°
2026-05-09 11:43 -31.35436 -52.90437 39051 ft 493 kts 35°
2026-05-09 11:43 -31.33150 -52.87441 38836 ft 493 kts 35°
2026-05-09 11:43 -31.30873 -52.84453 38446 ft 490 kts 34°
2026-05-09 11:43 -31.28608 -52.81480 37929 ft 487 kts 34°
2026-05-09 11:44 -31.26358 -52.78533 37404 ft 485 kts 34°
2026-05-09 11:44 -31.24115 -52.75599 36804 ft 483 kts 33°
2026-05-09 11:44 -31.21880 -52.72679 36278 ft 481 kts 33°
2026-05-09 11:44 -31.19676 -52.69806 35693 ft 480 kts 33°
2026-05-09 11:45 -31.17443 -52.66900 35085 ft 480 kts 32°
2026-05-09 11:45 -31.15209 -52.63996 34485 ft 480 kts 32°
2026-05-09 11:45 -31.12976 -52.61096 33843 ft 480 kts 32°
2026-05-09 11:45 -31.10735 -52.58191 33117 ft 480 kts 32°
2026-05-09 11:46 -31.08504 -52.55302 32475 ft 479 kts 32°
2026-05-09 11:46 -31.06275 -52.52415 31814 ft 478 kts 33°
2026-05-09 11:46 -31.04046 -52.49530 31126 ft 478 kts 33°
2026-05-09 11:46 -31.01817 -52.46645 30457 ft 479 kts 33°
2026-05-09 11:47 -30.99613 -52.43794 29713 ft 480 kts 34°
2026-05-09 11:47 -30.97374 -52.40898 28943 ft 481 kts 34°
2026-05-09 11:47 -30.95137 -52.38002 28221 ft 480 kts 34°
2026-05-09 11:47 -30.92902 -52.35110 27508 ft 479 kts 34°
2026-05-09 11:48 -30.90678 -52.32235 27075 ft 477 kts 35°
2026-05-09 11:48 -30.88455 -52.29379 26657 ft 473 kts 34°
2026-05-09 11:48 -30.86226 -52.26582 26207 ft 469 kts 34°
2026-05-09 11:48 -30.84000 -52.23815 25765 ft 466 kts 34°
2026-05-09 11:49 -30.81790 -52.21069 25320 ft 463 kts 34°
2026-05-09 11:49 -30.79598 -52.18340 24896 ft 459 kts 34°
2026-05-09 11:49 -30.77458 -52.15673 24459 ft 455 kts 34°
2026-05-09 11:49 -30.75307 -52.12995 24017 ft 451 kts 34°
2026-05-09 11:50 -30.73173 -52.10338 23571 ft 447 kts 34°
2026-05-09 11:50 -30.70964 -52.07888 23028 ft 431 kts 28°
2026-05-09 11:50 -30.68616 -52.05818 22565 ft 416 kts 22°
2026-05-09 11:50 -30.66175 -52.04117 22043 ft 404 kts 17°
2026-05-09 11:51 -30.63704 -52.02611 21603 ft 397 kts 16°
2026-05-09 11:51 -30.61264 -52.01152 21164 ft 392 kts 16°
2026-05-09 11:51 -30.58880 -51.99728 20738 ft 389 kts 16°
2026-05-09 11:51 -30.56478 -51.98290 20301 ft 387 kts 16°
2026-05-09 11:52 -30.54092 -51.96858 19862 ft 385 kts 16°
2026-05-09 11:52 -30.51716 -51.95430 19423 ft 384 kts 17°
2026-05-09 11:52 -30.49346 -51.94005 18994 ft 383 kts 17°
2026-05-09 11:52 -30.47010 -51.92469 18533 ft 391 kts 22°
2026-05-09 11:53 -30.44805 -51.90564 18035 ft 399 kts 30°
2026-05-09 11:53 -30.42795 -51.88297 17571 ft 406 kts 38°
2026-05-09 11:53 -30.40956 -51.85873 17132 ft 406 kts 40°
2026-05-09 11:53 -30.39128 -51.83383 16684 ft 404 kts 41°
2026-05-09 11:54 -30.37316 -51.80911 16236 ft 401 kts 41°
2026-05-09 11:54 -30.35510 -51.78457 15806 ft 399 kts 41°
2026-05-09 11:54 -30.33709 -51.76028 15373 ft 396 kts 41°
2026-05-09 11:54 -30.31926 -51.73627 15129 ft 387 kts 41°
2026-05-09 11:55 -30.30212 -51.71313 15122 ft 370 kts 41°
2026-05-09 11:56 -30.22691 -51.61215 15105 ft 293 kts 38°
2026-05-09 11:56 -30.21391 -51.59468 15071 ft 281 kts 38°
2026-05-09 11:56 -30.20135 -51.57757 14837 ft 277 kts 38°
2026-05-09 11:57 -30.18899 -51.56072 14513 ft 275 kts 39°
2026-05-09 11:57 -30.17656 -51.54381 13979 ft 278 kts 39°
2026-05-09 11:57 -30.16379 -51.52650 13251 ft 285 kts 40°
2026-05-09 11:57 -30.15113 -51.50911 12793 ft 279 kts 41°
2026-05-09 11:58 -30.13875 -51.49204 12253 ft 274 kts 41°
2026-05-09 11:58 -30.12666 -51.47547 11674 ft 272 kts 41°
2026-05-09 11:58 -30.11454 -51.45888 11200 ft 267 kts 42°
2026-05-09 11:58 -30.10272 -51.44267 10754 ft 261 kts 42°
2026-05-09 11:59 -30.09137 -51.42640 10335 ft 261 kts 50°
2026-05-09 11:59 -30.08433 -51.40695 9920 ft 266 kts 74°
2026-05-09 11:59 -30.08308 -51.38580 9659 ft 262 kts 88°
2026-05-09 11:59 -30.08371 -51.36494 9364 ft 257 kts 92°
2026-05-09 12:00 -30.08465 -51.34450 9089 ft 252 kts 92°
2026-05-09 12:00 -30.08549 -51.32440 8829 ft 248 kts 92°
2026-05-09 12:00 -30.08612 -51.30494 8558 ft 244 kts 92°
2026-05-09 12:00 -30.08662 -51.28552 8303 ft 239 kts 92°
2026-05-09 12:01 -30.08705 -51.26646 8064 ft 235 kts 92°
2026-05-09 12:01 -30.08744 -51.24787 7822 ft 230 kts 92°
2026-05-09 12:01 -30.08782 -51.22956 7612 ft 225 kts 93°
2026-05-09 12:01 -30.08819 -51.21154 7382 ft 224 kts 93°
2026-05-09 12:02 -30.08855 -51.19362 7154 ft 223 kts 94°
2026-05-09 12:02 -30.08891 -51.17578 6922 ft 221 kts 94°
2026-05-09 12:02 -30.08924 -51.15834 6678 ft 219 kts 95°
2026-05-09 12:02 -30.08959 -51.14080 6451 ft 217 kts 95°
2026-05-09 12:03 -30.08993 -51.12337 6202 ft 216 kts 95°
2026-05-09 12:03 -30.09028 -51.10602 5998 ft 215 kts 95°
2026-05-09 12:03 -30.09061 -51.08873 5765 ft 215 kts 95°
2026-05-09 12:03 -30.09095 -51.07151 5556 ft 214 kts 95°
2026-05-09 12:04 -30.09128 -51.05430 5343 ft 214 kts 94°
2026-05-09 12:04 -30.09160 -51.03711 5133 ft 214 kts 94°
2026-05-09 12:04 -30.09191 -51.01986 4922 ft 214 kts 94°
2026-05-09 12:04 -30.09221 -51.00264 4702 ft 214 kts 94°
2026-05-09 12:05 -30.09253 -50.98571 4484 ft 214 kts 94°
2026-05-09 12:05 -30.09220 -50.96856 4256 ft 214 kts 78°
2026-05-09 12:05 -30.08590 -50.95327 4047 ft 210 kts 43°
2026-05-09 12:05 -30.07440 -50.94399 3987 ft 193 kts 12°
2026-05-09 12:06 -30.06214 -50.94197 3752 ft 165 kts 343°
2026-05-09 12:06 -30.05186 -50.94495 3607 ft 145 kts 329°
2026-05-09 12:06 -30.04248 -50.94907 3494 ft 144 kts 328°
2026-05-09 12:06 -30.03326 -50.95315 3382 ft 144 kts 329°
2026-05-09 12:07 -30.02383 -50.95714 3259 ft 144 kts 330°
2026-05-09 12:07 -30.01441 -50.96098 3121 ft 143 kts 330°
2026-05-09 12:07 -30.00568 -50.96578 2985 ft 136 kts 310°
2026-05-09 12:07 -30.00011 -50.97453 2907 ft 137 kts 287°
2026-05-09 12:08 -29.99849 -50.98550 2791 ft 142 kts 272°
2026-05-09 12:08 -29.99815 -50.99702 2664 ft 144 kts 271°
2026-05-09 12:08 -29.99790 -51.00857 2468 ft 144 kts 271°
2026-05-09 12:08 -29.99767 -51.02016 2237 ft 144 kts 271°
2026-05-09 12:09 -29.99745 -51.03151 2041 ft 143 kts 271°
2026-05-09 12:09 -29.99722 -51.04300 1852 ft 143 kts 271°
2026-05-09 12:09 -29.99699 -51.05445 1657 ft 142 kts 271°
2026-05-09 12:10 -29.99640 -51.08849 1091 ft 141 kts 273°
2026-05-09 12:10 -29.99619 -51.09978 909 ft 140 kts 273°
2026-05-09 12:10 -29.99597 -51.11100 721 ft 140 kts 274°
2026-05-09 12:11 -29.99570 -51.12240 573 ft 140 kts 273°
2026-05-09 12:11 -29.99539 -51.13347 386 ft 140 kts 273°
2026-05-09 12:11 -29.99522 -51.14459 236 ft 137 kts 273°
2026-05-09 12:11 -29.99503 -51.15546 94 ft 133 kts 274°
2026-05-09 12:12 -29.99475 -51.16581 27 ft 111 kts 271°
2026-05-09 12:12 -29.99463 -51.17234 27 ft 56 kts 271°
2026-05-09 12:12 -29.99458 -51.17519 28 ft 28 kts 271°
2026-05-09 12:12 -29.99426 -51.17668 29 ft 16 kts 319°
2026-05-09 12:13 -29.99356 -51.17697 28 ft 0 kts 351°
2026-05-09 12:13 -29.99353 -51.17698 28 ft 2 kts 351°
2026-05-09 12:13 -29.99328 -51.17698 28 ft 5 kts
2026-05-09 12:13 -29.99283 -51.17698 28 ft 8 kts
2026-05-09 12:14 -29.99209 -51.17699 27 ft 12 kts 358°
2026-05-09 12:14 -29.99127 -51.17679 27 ft 8 kts 29°
2026-05-09 12:14 -29.99122 -51.17676 28 ft 0 kts 21°
2026-05-09 12:14 -29.99121 -51.17675 28 ft 1 kts 17°
2026-05-09 12:15 -29.99106 -51.17677 28 ft 0 kts 356°
2026-05-09 12:15 -29.99101 -51.17678 28 ft 0 kts 352°
2026-05-09 12:15 -29.99100 -51.17672 28 ft 0 kts 337°
2026-05-09 12:16 -29.99101 -51.17673 27 ft 0 kts 345°